Weather History for KHLN - June, 2013

Change the Weather History Date:

Monday, June 24, 2013

  Actual Average Record
Temperature  
Mean Temperature 66 °F 64 °F  
Max Temperature 78 °F 79 °F 98 °F (2012)
Min Temperature 53 °F 50 °F 36 °F (1905)
Degree Days  
Heating Degree Days 0 3  
Month to date heating degree days 145 120  
Since 1 June heating degree days 145 120  
Since 1 July heating degree days 7165 7525  
Cooling Degree Days 1 2  
Month to date cooling degree days 8 31  
Year to date cooling degree days 15 39  
Since 1 June cooling degree days 8 31  
Growing Degree Days 16 (Base 50)    
Moisture  
Dew Point 46 °F    
Average Humidity 52    
Maximum Humidity 66    
Minimum Humidity 38    
Precipitation  
Precipitation 0.06 in 0.06 in 0.82 in (1969)
Month to date precipitation 1.95 1.74  
Year to date precipitation 5.53 5.84  
Snow  
Snow 0.00 in 0.00 in 0.00 in (2000)
Month to date snowfall 0.0 0.0  
Since 1 June snowfall 0.0 0.0  
Since 1 July snowfall 39.7 38.1  
Snow Depth 0.00 in    
Sea Level Pressure  
Sea Level Pressure 29.65 in    
Wind  
Wind Speed 6 mph (WNW)    
Max Wind Speed 25 mph    
Max Gust Speed 33 mph    
Visibility 10 miles    
Events Rain , Thunderstorm    
T = Trace of Precipitation, MM = Missing Value Source: NWS Daily Summary

Daily Weather History Graph

Daily Weather History Graph

Search for Another Location

Airport or City:

Trip Planner

Search our weather history database for the weather conditions in past years. The results will help you decide how hot, cold, wet, or windy it might be!

Date:

Astronomy

Jun. 24, 2013 Rise Set
Actual Time 5:35 AM MDT 9:25 PM MDT
Civil Twilight 4:56 AM MDT 10:04 PM MDT
Nautical Twilight 4:02 AM MDT 10:58 PM MDT
Astronomical Twilight 2:44 AM MDT 12:15 AM MDT
Moon 10:21 PM MDT (6/24) 7:14 AM MDT (6/24)
Length of Visible Light 17h 08m
Length of Day
15h 49m
Full, 97% of the Moon is Illuminated
Jun 24
Full
Jun 29
Last Quarter
Jul 8
New
Jul 15
First Quarter
Jul 22
Full

Hourly Weather History & Observations

Time (MDT) Temp. Dew Point Humidity Pressure Visibility Wind Dir Wind Speed Gust Speed Precip Events Conditions
12:53 AM 59.0 °F 44.1 °F 58% 29.71 in 10.0 mi West 6.9 mph - N/A   Scattered Clouds
1:53 AM 59.0 °F 44.1 °F 58% 29.70 in 10.0 mi Calm Calm - N/A   Clear
2:53 AM 57.9 °F 41.0 °F 53% 29.68 in 10.0 mi SW 6.9 mph - N/A   Clear
3:53 AM 55.9 °F 41.0 °F 57% 29.68 in 10.0 mi Calm Calm - N/A   Clear
4:53 AM 54.0 °F 42.1 °F 64% 29.67 in 10.0 mi Calm Calm - N/A   Clear
5:53 AM 53.1 °F 42.1 °F 66% 29.67 in 10.0 mi Calm Calm - N/A   Clear
6:53 AM 55.0 °F 44.1 °F 67% 29.65 in 10.0 mi Calm Calm - N/A   Mostly Cloudy
7:53 AM 57.0 °F 44.1 °F 62% 29.66 in 10.0 mi Calm Calm - N/A   Clear
8:53 AM 60.1 °F 46.0 °F 60% 29.64 in 10.0 mi NNE 3.5 mph - N/A   Clear
9:53 AM 63.0 °F 46.9 °F 56% 29.64 in 10.0 mi Variable 3.5 mph - N/A   Clear
10:53 AM 64.9 °F 46.0 °F 50% 29.62 in 10.0 mi Calm Calm - N/A   Partly Cloudy
11:53 AM 68.0 °F 45.0 °F 43% 29.62 in 10.0 mi Calm Calm - N/A   Clear
12:53 PM 72.0 °F 45.0 °F 38% 29.60 in 10.0 mi NNW 4.6 mph - N/A   Clear
1:53 PM 71.1 °F 48.0 °F 44% 29.61 in 10.0 mi North 6.9 mph - N/A   Scattered Clouds
2:53 PM 73.0 °F 46.0 °F 38% 29.60 in 10.0 mi Variable 3.5 mph - 0.01 in   Scattered Clouds
3:10 PM 73.4 °F 46.4 °F 38% 29.63 in 10.0 mi Calm Calm - N/A Thunderstorm Mostly Cloudy
3:42 PM 75.2 °F 44.6 °F 34% 29.63 in 10.0 mi Variable 5.8 mph - N/A   Partly Cloudy
3:53 PM 71.1 °F 46.9 °F 42% 29.62 in 10.0 mi SSE 16.1 mph 29.9 mph N/A   Mostly Cloudy
4:03 PM 66.2 °F 51.8 °F 60% 29.60 in 2.5 mi East 19.6 mph 33.4 mph 0.02 in Rain Heavy Rain
4:10 PM 66.2 °F 51.8 °F 60% 29.63 in 3.0 mi ESE 12.7 mph 33.4 mph 0.03 in Rain Light Rain
4:53 PM 69.1 °F 51.1 °F 53% 29.61 in 10.0 mi South 11.5 mph 18.4 mph 0.03 in   Mostly Cloudy
5:53 PM 71.1 °F 48.0 °F 44% 29.62 in 10.0 mi SW 8.1 mph - N/A   Partly Cloudy
6:53 PM 68.0 °F 46.0 °F 45% 29.64 in 10.0 mi West 17.3 mph 23.0 mph N/A   Mostly Cloudy
7:53 PM 64.9 °F 48.9 °F 56% 29.68 in 10.0 mi WNW 13.8 mph - N/A   Mostly Cloudy
8:53 PM 63.0 °F 48.9 °F 60% 29.67 in 10.0 mi WNW 8.1 mph - N/A   Partly Cloudy
9:53 PM 61.0 °F 48.9 °F 64% 29.70 in 10.0 mi NW 6.9 mph - N/A   Mostly Cloudy
10:53 PM 61.0 °F 48.0 °F 62% 29.69 in 10.0 mi WNW 9.2 mph - N/A   Overcast
11:53 PM 59.0 °F 48.9 °F 69% 29.71 in 10.0 mi West 11.5 mph - 0.01 in Rain Light Rain